User: anonymous   Login
Location: Unspecified
(0.0000°N, 0.0000°E)
Time: 11:05:17
(UTC+00:00)
Language:

SIRIUSSAT-2 - Orbit

View from above orbital plane
View from above orbital plane
View from above satellite
View from above satellite

Ground track
Ground track

The orbit data is extracted from the following two-line orbital elements,

1 43596U 98067PH  20344.36554324  .08904132  12494-4  57179-3 0  9995
2 43596  51.6062  99.6513 0006261 312.7483  99.6145 16.40921535132742
Epoch (UTC): 09 December 2020 08:46:22
Eccentricity: 0.0006261
inclination: 51.6062°
perigee height: 159 km
apogee height: 167 km
right ascension of ascending node: 99.6513°
argument of perigee: 312.7483°
revolutions per day: 16.40921535
mean anomaly at epoch: 99.6145°
orbit number at epoch: 13274

The dashed part of the orbit path shows where the satellite is in the earth's shadow,  

DLR